(°F)
33°
35°
37°
39°
41°
42°
42°
(°F)
25°
27°
30°
32°
33°
34°
34°
NNW
N
NNW
NW
WNW
WNW
W
(mph)
6-10
5-9
4-9
4-9
4-7
4-7
5-8
(in)
0
0
0
0
0
0
0
(%)
0
0
0
0
0
0
0

Sun elevation

/ 16.4°
sun-icon
UV 2
08:13
18:22
Waning gibbous moon (244°)
21:23
14:11

METAR for 51.15°N 51.54°E (UARR)

Time Conditions Temperature/
Dewpoint
Wind Visibility Weather Clouds Pressure Change Raw
VFR 32°F / 26.6°F 330º 6kt >10km - Clouds and Visibility OK 1030 No Significant change UARR 260500Z 33003MPS CAVOK M00/M03 Q1030 R04/CLRD70 NOSIG RMK QFE769/1025
VFR 32°F / 26.6°F 330º 6kt >10km - Clouds and Visibility OK 1029 No Significant change UARR 260430Z 33003MPS CAVOK M00/M03 Q1029 R04/CLRD70 NOSIG RMK QFE768/1025
VFR 32°F / 26.6°F 310º 6kt >10km - Clouds and Visibility OK 1029 No Significant change UARR 260400Z 31003MPS CAVOK M00/M03 Q1029 R04/CLRD70 NOSIG RMK QFE768/1024
VFR 30.2°F / 24.8°F 330º 8kt >10km - Clouds and Visibility OK 1029 No Significant change UARR 260330Z 33004MPS CAVOK M01/M04 Q1029 R04/CLRD70 NOSIG RMK QFE768/1024
VFR 30.2°F / 24.8°F 330º 8kt >10km - Scattered Clouds 2800ft 1028 No Significant change UARR 260300Z 33004MPS 9999 SCT028 M01/M04 Q1028 R04/CLRD70 NOSIG RMK QFE768/1024
MVFR 32°F / 24.8°F 340º 8kt >10km - Broken Clouds 2700ft 1028 No Significant change. Runway 04: Damp, 11-25% contamination with <1mm, friction coefficient 0.65. UARR 260230Z 34004MPS 9999 BKN027 M00/M04 Q1028 R04/120065 NOSIG RMK QFE768/1024
MVFR 33.8°F / 26.6°F 340º 10kt >10km - Overcast 2300ft 1028 No Significant change. Runway 04: Damp, 11-25% contamination with <1mm, friction coefficient 0.65. UARR 260200Z 34005MPS 9999 OVC023 01/M03 Q1028 R04/120065 NOSIG RMK QFE767/1023
MVFR 33.8°F / 26.6°F 330º 8kt >10km - Overcast 2300ft 1028 No Significant change. Runway 04: Damp, 11-25% contamination with <1mm, friction coefficient 0.65. UARR 260130Z 33004MPS 9999 OVC023 01/M03 Q1028 R04/120065 NOSIG RMK QFE767/1023
MVFR 33.8°F / 26.6°F 330º 10kt >10km - Overcast 2300ft 1027 No Significant change. Runway 04: Damp, 11-25% contamination with <1mm, friction coefficient 0.65. UARR 260100Z 33005MPS 9999 OVC023 01/M03 Q1027 R04/120065 NOSIG RMK QFE767/1022
MVFR 35.6°F / 28.4°F 330º 12kt >10km - Overcast 2200ft 1027 No Significant change. Runway 04: Damp, 11-25% contamination with <1mm, friction coefficient 0.65. UARR 260030Z 33006MPS 9999 OVC022 02/M02 Q1027 R04/120065 NOSIG RMK QFE767/1022
MVFR 35.6°F / 28.4°F 330º 12kt >10km - Overcast 2200ft 1027 No Significant change. Runway 04: Damp, 11-25% contamination with <1mm, friction coefficient 0.65. UARR 260000Z 33006MPS 9999 OVC022 02/M02 Q1027 R04/120065 NOSIG RMK QFE766/1022
MVFR 35.6°F / 26.6°F 320º 14kt >10km - Overcast 2600ft 1026 No Significant change. Runway 04: Damp, 11-25% contamination with <1mm, friction coefficient 0.65. UARR 252300Z 32007MPS 9999 OVC026 02/M03 Q1026 R04/120065 NOSIG RMK QFE766/1021
MVFR 35.6°F / 28.4°F 330º 16kt >10km - Overcast 2500ft 1026 No Significant change. Runway 04: Damp, 11-25% contamination with <1mm, friction coefficient 0.65. UARR 252230Z 33008MPS 9999 OVC025 02/M02 Q1026 R04/120065 NOSIG RMK QFE766/1021
MVFR 35.6°F / 28.4°F 320º 14kt >10km - Overcast 2500ft 1026 No Significant change. Runway 04: Damp, 11-25% contamination with <1mm, friction coefficient 0.65. UARR 252200Z 32007MPS 9999 OVC025 02/M02 Q1026 R04/120065 NOSIG RMK QFE766/1021
MVFR 35.6°F / 30.2°F 330º 14kt >10km - Broken Clouds 2400ft 1025 No Significant change. Runway 04: Damp, 51-100% contamination with <1mm, friction coefficient 0.60. UARR 252130Z 33007MPS 9999 BKN024 02/M01 Q1025 R04/190060 NOSIG RMK QFE765/1021
MVFR 35.6°F / 30.2°F 330º 16kt >10km - Broken Clouds 2200ft 1025 No Significant change. Runway 04: Damp, 51-100% contamination with <1mm, friction coefficient 0.60. UARR 252100Z 33008MPS 9999 BKN022 02/M01 Q1025 R04/190060 NOSIG RMK QFE765/1020
MVFR 35.6°F / 30.2°F 330º 16kt >10km - Broken Clouds 2200ft 1024 No Significant change. Runway 04: Damp, 51-100% contamination with <1mm, friction coefficient 0.60. UARR 252030Z 33008MPS 9999 BKN022 02/M01 Q1024 R04/190060 NOSIG RMK QFE765/1020
MVFR 37.4°F / 32°F 330º 19kt >10km - Broken Clouds 1600ft 1024 No Significant change. Runway 04: Damp, 51-100% contamination with <1mm, friction coefficient 0.60. UARR 252000Z 33010MPS 9999 BKN016 03/00 Q1024 R04/190060 NOSIG RMK QFE765/1020
MVFR 37.4°F / 33.8°F 320º 16kt >10km - Overcast 1300ft 1024 No Significant change. Runway 04: Damp, 51-100% contamination with <1mm, friction coefficient 0.60. UARR 251930Z 32008MPS 9999 OVC013CB 03/01 Q1024 R04/190060 NOSIG RMK QFE764/1019
MVFR 39.2°F / 35.6°F 320º 16kt >10km - Overcast 2600ft 1023 Temporary: 32007G12MPS Visibility 2000. Light Showers Rain . Mist . Broken Clouds 600ft. Broken Clouds 2000ft. Cumulonimbus RMK QFE764/1019 . Runway 04: Damp, 51-100% contamination with <1mm, friction coefficient 0.60. UARR 251900Z 32008MPS 9999 OVC026CB 04/02 Q1023 R04/190060 TEMPO 32007G12MPS 2000 -SHRA BR BKN006 BKN020CB RMK QFE764/1019
MVFR 39.2°F / 35.6°F 320º 16kt >10km - Overcast 1400ft 1023 Temporary: 32007G12MPS Visibility 2000. Light Showers Rain . Mist . Broken Clouds 600ft. Broken Clouds 2000ft. Cumulonimbus RMK QFE764/1019 . Runway 04: Damp, 51-100% contamination with <1mm, friction coefficient 0.60. UARR 251833Z 32008MPS 9999 OVC014CB 04/02 Q1023 R04/190060 TEMPO 32007G12MPS 2000 -SHRA BR BKN006 BKN020CB RMK QFE764/1019
VFR 39.2°F / 35.6°F 330º 16kt >10km - Overcast 3100ft 1023 Temporary: 32007G12MPS Visibility 2000. Light Showers Rain . Mist . Broken Clouds 600ft. Broken Clouds 2000ft. Cumulonimbus RMK QFE764/1018 . Runway 04: Damp, 51-100% contamination with <1mm, friction coefficient 0.60. UARR 251819Z 33008MPS 9999 OVC031CB 04/02 Q1023 R04/190060 TEMPO 32007G12MPS 2000 -SHRA BR BKN006 BKN020CB RMK QFE764/1018
MVFR 41°F / 37.4°F 330º 17kt 9000m Light Showers Rain 3.00mm precipitation Vertical Visibility of 0ft.
Overcast 1600ft
1023 Temporary: 32007G12MPS Visibility 2000. Light Showers Rain . Mist . Broken Clouds 600ft. Broken Clouds 2000ft. Cumulonimbus RMK QFE763/1018 . Runway 22: Damp, 51-100% contamination with <1mm, friction coefficient 0.60. UARR 251800Z 33009MPS 9000 -SHRA SCT011 OVC016CB 05/03 Q1023 R22/190060 TEMPO 32007G12MPS 2000 -SHRA BR BKN006 BKN020CB RMK QFE763/1018
MVFR 41°F / 37.4°F 320º 14kt >10km - Overcast 1400ft 1022 Temporary: Visibility 2000. Light Showers Rain . Mist . Broken Clouds 600ft. Broken Clouds 2000ft. Cumulonimbus RMK QFE763/1017 . Runway 22: Damp, 51-100% contamination with <1mm, friction coefficient 0.60. UARR 251734Z 32007MPS 9999 OVC014CB 05/03 Q1022 R22/190060 TEMPO 2000 -SHRA BR BKN006 BKN020CB RMK QFE763/1017

VFR

32°F / 26.6°F

[More]
Wind 330º 6kt
Visibility >10km
Weather -
Clouds Clouds and Visibility OK
Pressure 1030
Change No Significant change
Raw UARR 260500Z 33003MPS CAVOK M00/M03 Q1030 R04/CLRD70 NOSIG RMK QFE769/1025

VFR

32°F / 26.6°F

[More]
Wind 330º 6kt
Visibility >10km
Weather -
Clouds Clouds and Visibility OK
Pressure 1029
Change No Significant change
Raw UARR 260430Z 33003MPS CAVOK M00/M03 Q1029 R04/CLRD70 NOSIG RMK QFE768/1025

VFR

32°F / 26.6°F

[More]
Wind 310º 6kt
Visibility >10km
Weather -
Clouds Clouds and Visibility OK
Pressure 1029
Change No Significant change
Raw UARR 260400Z 31003MPS CAVOK M00/M03 Q1029 R04/CLRD70 NOSIG RMK QFE768/1024

VFR

30.2°F / 24.8°F

[More]
Wind 330º 8kt
Visibility >10km
Weather -
Clouds Clouds and Visibility OK
Pressure 1029
Change No Significant change
Raw UARR 260330Z 33004MPS CAVOK M01/M04 Q1029 R04/CLRD70 NOSIG RMK QFE768/1024

VFR

30.2°F / 24.8°F

[More]
Wind 330º 8kt
Visibility >10km
Weather -
Clouds Scattered Clouds 2800ft
Pressure 1028
Change No Significant change
Raw UARR 260300Z 33004MPS 9999 SCT028 M01/M04 Q1028 R04/CLRD70 NOSIG RMK QFE768/1024

MVFR

32°F / 24.8°F

[More]
Wind 340º 8kt
Visibility >10km
Weather -
Clouds Broken Clouds 2700ft
Pressure 1028
Change No Significant change. Runway 04: Damp, 11-25% contamination with <1mm, friction coefficient 0.65.
Raw UARR 260230Z 34004MPS 9999 BKN027 M00/M04 Q1028 R04/120065 NOSIG RMK QFE768/1024

MVFR

33.8°F / 26.6°F

[More]
Wind 340º 10kt
Visibility >10km
Weather -
Clouds Overcast 2300ft
Pressure 1028
Change No Significant change. Runway 04: Damp, 11-25% contamination with <1mm, friction coefficient 0.65.
Raw UARR 260200Z 34005MPS 9999 OVC023 01/M03 Q1028 R04/120065 NOSIG RMK QFE767/1023

MVFR

33.8°F / 26.6°F

[More]
Wind 330º 8kt
Visibility >10km
Weather -
Clouds Overcast 2300ft
Pressure 1028
Change No Significant change. Runway 04: Damp, 11-25% contamination with <1mm, friction coefficient 0.65.
Raw UARR 260130Z 33004MPS 9999 OVC023 01/M03 Q1028 R04/120065 NOSIG RMK QFE767/1023

MVFR

33.8°F / 26.6°F

[More]
Wind 330º 10kt
Visibility >10km
Weather -
Clouds Overcast 2300ft
Pressure 1027
Change No Significant change. Runway 04: Damp, 11-25% contamination with <1mm, friction coefficient 0.65.
Raw UARR 260100Z 33005MPS 9999 OVC023 01/M03 Q1027 R04/120065 NOSIG RMK QFE767/1022

MVFR

35.6°F / 28.4°F

[More]
Wind 330º 12kt
Visibility >10km
Weather -
Clouds Overcast 2200ft
Pressure 1027
Change No Significant change. Runway 04: Damp, 11-25% contamination with <1mm, friction coefficient 0.65.
Raw UARR 260030Z 33006MPS 9999 OVC022 02/M02 Q1027 R04/120065 NOSIG RMK QFE767/1022

MVFR

35.6°F / 28.4°F

[More]
Wind 330º 12kt
Visibility >10km
Weather -
Clouds Overcast 2200ft
Pressure 1027
Change No Significant change. Runway 04: Damp, 11-25% contamination with <1mm, friction coefficient 0.65.
Raw UARR 260000Z 33006MPS 9999 OVC022 02/M02 Q1027 R04/120065 NOSIG RMK QFE766/1022

MVFR

35.6°F / 26.6°F

[More]
Wind 320º 14kt
Visibility >10km
Weather -
Clouds Overcast 2600ft
Pressure 1026
Change No Significant change. Runway 04: Damp, 11-25% contamination with <1mm, friction coefficient 0.65.
Raw UARR 252300Z 32007MPS 9999 OVC026 02/M03 Q1026 R04/120065 NOSIG RMK QFE766/1021

MVFR

35.6°F / 28.4°F

[More]
Wind 330º 16kt
Visibility >10km
Weather -
Clouds Overcast 2500ft
Pressure 1026
Change No Significant change. Runway 04: Damp, 11-25% contamination with <1mm, friction coefficient 0.65.
Raw UARR 252230Z 33008MPS 9999 OVC025 02/M02 Q1026 R04/120065 NOSIG RMK QFE766/1021

MVFR

35.6°F / 28.4°F

[More]
Wind 320º 14kt
Visibility >10km
Weather -
Clouds Overcast 2500ft
Pressure 1026
Change No Significant change. Runway 04: Damp, 11-25% contamination with <1mm, friction coefficient 0.65.
Raw UARR 252200Z 32007MPS 9999 OVC025 02/M02 Q1026 R04/120065 NOSIG RMK QFE766/1021

MVFR

35.6°F / 30.2°F

[More]
Wind 330º 14kt
Visibility >10km
Weather -
Clouds Broken Clouds 2400ft
Pressure 1025
Change No Significant change. Runway 04: Damp, 51-100% contamination with <1mm, friction coefficient 0.60.
Raw UARR 252130Z 33007MPS 9999 BKN024 02/M01 Q1025 R04/190060 NOSIG RMK QFE765/1021

MVFR

35.6°F / 30.2°F

[More]
Wind 330º 16kt
Visibility >10km
Weather -
Clouds Broken Clouds 2200ft
Pressure 1025
Change No Significant change. Runway 04: Damp, 51-100% contamination with <1mm, friction coefficient 0.60.
Raw UARR 252100Z 33008MPS 9999 BKN022 02/M01 Q1025 R04/190060 NOSIG RMK QFE765/1020

MVFR

35.6°F / 30.2°F

[More]
Wind 330º 16kt
Visibility >10km
Weather -
Clouds Broken Clouds 2200ft
Pressure 1024
Change No Significant change. Runway 04: Damp, 51-100% contamination with <1mm, friction coefficient 0.60.
Raw UARR 252030Z 33008MPS 9999 BKN022 02/M01 Q1024 R04/190060 NOSIG RMK QFE765/1020

MVFR

37.4°F / 32°F

[More]
Wind 330º 19kt
Visibility >10km
Weather -
Clouds Broken Clouds 1600ft
Pressure 1024
Change No Significant change. Runway 04: Damp, 51-100% contamination with <1mm, friction coefficient 0.60.
Raw UARR 252000Z 33010MPS 9999 BKN016 03/00 Q1024 R04/190060 NOSIG RMK QFE765/1020

MVFR

37.4°F / 33.8°F

[More]
Wind 320º 16kt
Visibility >10km
Weather -
Clouds Overcast 1300ft
Pressure 1024
Change No Significant change. Runway 04: Damp, 51-100% contamination with <1mm, friction coefficient 0.60.
Raw UARR 251930Z 32008MPS 9999 OVC013CB 03/01 Q1024 R04/190060 NOSIG RMK QFE764/1019

MVFR

39.2°F / 35.6°F

[More]
Wind 320º 16kt
Visibility >10km
Weather -
Clouds Overcast 2600ft
Pressure 1023
Change Temporary: 32007G12MPS Visibility 2000. Light Showers Rain . Mist . Broken Clouds 600ft. Broken Clouds 2000ft. Cumulonimbus RMK QFE764/1019 . Runway 04: Damp, 51-100% contamination with <1mm, friction coefficient 0.60.
Raw UARR 251900Z 32008MPS 9999 OVC026CB 04/02 Q1023 R04/190060 TEMPO 32007G12MPS 2000 -SHRA BR BKN006 BKN020CB RMK QFE764/1019

MVFR

39.2°F / 35.6°F

[More]
Wind 320º 16kt
Visibility >10km
Weather -
Clouds Overcast 1400ft
Pressure 1023
Change Temporary: 32007G12MPS Visibility 2000. Light Showers Rain . Mist . Broken Clouds 600ft. Broken Clouds 2000ft. Cumulonimbus RMK QFE764/1019 . Runway 04: Damp, 51-100% contamination with <1mm, friction coefficient 0.60.
Raw UARR 251833Z 32008MPS 9999 OVC014CB 04/02 Q1023 R04/190060 TEMPO 32007G12MPS 2000 -SHRA BR BKN006 BKN020CB RMK QFE764/1019

VFR

39.2°F / 35.6°F

[More]
Wind 330º 16kt
Visibility >10km
Weather -
Clouds Overcast 3100ft
Pressure 1023
Change Temporary: 32007G12MPS Visibility 2000. Light Showers Rain . Mist . Broken Clouds 600ft. Broken Clouds 2000ft. Cumulonimbus RMK QFE764/1018 . Runway 04: Damp, 51-100% contamination with <1mm, friction coefficient 0.60.
Raw UARR 251819Z 33008MPS 9999 OVC031CB 04/02 Q1023 R04/190060 TEMPO 32007G12MPS 2000 -SHRA BR BKN006 BKN020CB RMK QFE764/1018

MVFR

41°F / 37.4°F

[More]
Wind 330º 17kt
Visibility 9000m
Weather Light Showers Rain 3.00mm precipitation
Clouds Vertical Visibility of 0ft.
Overcast 1600ft
Pressure 1023
Change Temporary: 32007G12MPS Visibility 2000. Light Showers Rain . Mist . Broken Clouds 600ft. Broken Clouds 2000ft. Cumulonimbus RMK QFE763/1018 . Runway 22: Damp, 51-100% contamination with <1mm, friction coefficient 0.60.
Raw UARR 251800Z 33009MPS 9000 -SHRA SCT011 OVC016CB 05/03 Q1023 R22/190060 TEMPO 32007G12MPS 2000 -SHRA BR BKN006 BKN020CB RMK QFE763/1018

MVFR

41°F / 37.4°F

[More]
Wind 320º 14kt
Visibility >10km
Weather -
Clouds Overcast 1400ft
Pressure 1022
Change Temporary: Visibility 2000. Light Showers Rain . Mist . Broken Clouds 600ft. Broken Clouds 2000ft. Cumulonimbus RMK QFE763/1017 . Runway 22: Damp, 51-100% contamination with <1mm, friction coefficient 0.60.
Raw UARR 251734Z 32007MPS 9999 OVC014CB 05/03 Q1022 R22/190060 TEMPO 2000 -SHRA BR BKN006 BKN020CB RMK QFE763/1017

TAF for 51.15°N 51.54°E (UARR)

From till


From till Wind 330º 10kt. Visibility 10km or more. Scattered Clouds 3000ft.
Temporarly from till Wind 280º 10kt.
Temporarly from till Wind 250º 10kt.

Raw: TAF UARR 260500Z 2606/2615 33005MPS 9999 SCT030 TEMPO 2606/2612 28005MPS TEMPO 2612/2615 25005MPS

Current satellite and rain images for 51.15°N 51.54°E

The location marker is placed on 51.15°N 51.54°E. [More]

The real-time satellite image combines visible light during daytime with infrared radiation during nighttime. At night, the image is not dark as infrared radiation can detect temperature differences. Unfortunately, low clouds and fog are difficult to distinguish from ground temperatures and thus can be almost invisible during the night. Meteosat satellite images for Europe are updated in real-time every 5 minutes. GOES-16/GOES-17 (North & South America) and Himawari (Asia) images update every 10 minutes.

Copyright 2021 EUMETSAT / meteoblue. / Copyright 2021 meteoblue

Radar and precipitation nowcast for 51.15°N 51.54°E

Drizzle
Light
Moderate
Heavy
Very Heavy
Hail

The location marker is placed on 51.15°N 51.54°E. This animation shows the precipitation radar for the last hour, as well as a 1h forecast. Drizzle or light snow fall might be invisible for the radar. Precipitation intensity is colour coded, ranging from light blue to orange.